[[{"header":{"parameterUnit":"m.s-1","parameterCategory":1,"la1":30.2992,"la2":30.254,"lo1":-89.0895,"lo2":-89.0443,"dy":0.0025,"dx":0.0025,"nx":19,"ny":19,"refTime":"2026-04-03T21:00:00:Z","depth":0,"parameterNumber":2,"parameterNumberName":"U-component_of_WINDS"},"data":[0,0,0,-1.5461,-1.5471,-1.5997,-1.5999,-1.659,-1.6595,0,0,0,0,0,0,0,0,0,0,0,-1.5261,-1.5264,-1.546,-1.5472,-1.5996,-1.5999,-1.6589,-1.6595,0,0,0,0,0,0,0,0,0,0,0,-1.526,-1.5263,-1.5266,-1.5474,-1.5996,-1.5999,-1.6588,-1.622,0,0,0,0,0,0,0,0,0,0,-1.5723,-1.5497,-1.5262,-1.5266,-1.5477,-1.5995,-1.6,-1.6203,-1.6243,-1.6319,0,-1.6378,0,-1.6495,-1.6629,-1.6631,0,0,0,-1.5505,-1.5464,-1.5645,-1.5267,-1.5481,-1.5994,-1.5769,-1.6226,-1.6271,-1.6371,-1.6388,-1.6412,-1.6505,-1.6633,-1.6635,-1.6975,-1.6974,0,0,-1.5476,-1.5331,-1.5614,-1.5672,-1.559,-1.5752,-1.5785,-1.6254,-1.6262,-1.639,-1.6427,-1.6515,-1.6636,-1.664,-1.6975,-1.6974,0,0,0,-1.5371,-1.5309,-1.5482,-1.5645,-1.5746,-1.5766,-1.5804,-1.6241,-1.631,-1.6434,-1.6522,-1.6639,-1.6646,-1.6975,-1.6975,-1.6838,0,0,0,-1.5355,-1.5249,-1.5467,-1.5384,-1.5736,-1.6001,-1.5779,-1.6277,-1.6335,-1.6519,-1.6639,-1.6651,-1.6975,-1.6975,-1.6842,-1.6798,0,0,0,-1.5242,-1.5236,-1.5297,-1.5375,-1.5596,-1.5997,-1.6094,-1.6293,-1.6387,-1.6632,-1.6652,-1.6975,-1.6975,-1.6846,-1.6804,-1.6845,0,0,0,-1.508,-1.5168,-1.5292,-1.5424,-1.559,-1.5909,-1.6092,-1.6337,-1.653,-1.6642,-1.6975,-1.6975,-1.6847,-1.6808,-1.6847,-1.6853,-1.6842,0,0,-1.511,-1.5166,-1.5255,-1.5382,-1.5642,-1.584,-1.6081,-1.6394,-1.6548,-1.6822,-1.6833,-1.6841,-1.6805,-1.6845,-1.6829,-1.6818,0,0,0,-1.5216,-1.5278,-1.5378,-1.5557,-1.5798,-1.6001,-1.6293,-1.6409,-1.665,-1.666,-1.6871,-1.6854,-1.6883,-1.6893,-1.6884,-1.6918,-1.6973,-1.6973,-1.6973,-1.5052,-1.5245,-1.5405,-1.5659,-1.5829,-1.6128,-1.6283,-1.6489,-1.6635,-1.668,-1.6763,-1.673,-1.6735,-1.673,-1.6763,-1.6781,-1.6781,-1.6781,-1.678,-1.5114,-1.5232,-1.5421,-1.5644,-1.5845,-1.6033,-1.6322,-1.6417,-1.662,-1.6684,-1.672,-1.6773,-1.6713,-1.6752,-1.6772,-1.6773,-1.6775,-1.6775,-1.6776,-1.5029,-1.5119,-1.5258,-1.5534,-1.5724,-1.5978,-1.6163,-1.634,-1.6508,-1.6543,-1.6649,-1.6652,-1.6676,-1.6581,-1.6581,-1.6581,-1.6581,-1.6581,-1.6581,-1.4886,-1.5047,-1.5183,-1.5444,-1.558,-1.5782,-1.6079,-1.6218,-1.6416,-1.653,-1.6532,-1.6669,-1.6672,-1.6668,-1.658,-1.658,-1.658,-1.658,-1.658,-1.4878,-1.4907,-1.5116,-1.5252,-1.5572,-1.5746,-1.597,-1.6235,-1.6374,-1.6459,-1.6589,-1.6562,-1.6632,-1.664,-1.6638,-1.6548,-1.6548,-1.6548,-1.6548,-1.4806,-1.4858,-1.5111,-1.5316,-1.5537,-1.5758,-1.5984,-1.6215,-1.6457,-1.6554,-1.6593,-1.6606,-1.6606,-1.6676,-1.6683,-1.6685,-1.6608,-1.6608,-1.6608,-1.4811,-1.4893,-1.5053,-1.5292,-1.5553,-1.5773,-1.5991,-1.6216,-1.6497,-1.6614,-1.6634,-1.6632,-1.6654,-1.6652,-1.677,-1.6777,-1.6784,0,0]},{"header":{"parameterUnit":"m.s-1","parameterCategory":1,"la1":30.2992,"la2":30.254,"lo1":-89.0895,"lo2":-89.0443,"dy":0.0025,"dx":0.0025,"nx":19,"ny":19,"refTime":"2026-04-03T21:00:00:Z","depth":0,"parameterNumber":3,"parameterNumberName":"V-component_of_WINDS"},"data":[0,0,0,3.8674,3.8673,3.8663,3.8663,3.8652,3.8652,0,0,0,0,0,0,0,0,0,0,0,3.8679,3.8679,3.8674,3.8673,3.8663,3.8663,3.8652,3.8652,0,0,0,0,0,0,0,0,0,0,0,3.8679,3.8679,3.8679,3.8673,3.8663,3.8663,3.8652,3.8659,0,0,0,0,0,0,0,0,0,0,3.8668,3.8677,3.8679,3.8679,3.8673,3.8663,3.8663,3.8659,3.8658,3.8658,0,3.866,0,3.8656,3.8651,3.8651,0,0,0,3.8671,3.8677,3.8672,3.8679,3.8673,3.8663,3.8667,3.8658,3.8658,3.8657,3.866,3.8659,3.8655,3.8651,3.8651,3.866,3.866,0,0,3.8672,3.8679,3.8673,3.8672,3.8675,3.8667,3.8667,3.8658,3.8661,3.8659,3.8659,3.8655,3.8651,3.8651,3.866,3.866,0,0,0,3.8675,3.8679,3.8674,3.8672,3.867,3.8667,3.8666,3.8661,3.8659,3.8658,3.8655,3.8651,3.8651,3.8659,3.866,3.8674,0,0,0,3.8675,3.8681,3.8675,3.8679,3.8671,3.8666,3.867,3.8659,3.8658,3.8655,3.8651,3.8651,3.8659,3.8659,3.8673,3.8679,0,0,0,3.8679,3.8682,3.8681,3.8679,3.8675,3.8666,3.8663,3.8659,3.8656,3.8651,3.8651,3.8659,3.8659,3.8672,3.8678,3.8682,0,0,0,3.8685,3.8694,3.8682,3.869,3.8675,3.8675,3.8663,3.8663,3.866,3.8651,3.8659,3.866,3.8672,3.8677,3.8682,3.8687,3.869,0,0,3.8701,3.8697,3.8701,3.8689,3.8693,3.8676,3.8682,3.8673,3.8665,3.8661,3.8662,3.8673,3.8678,3.8682,3.8707,3.871,0,0,0,3.8708,3.8711,3.8711,3.8709,3.8703,3.8697,3.8686,3.8682,3.8678,3.8665,3.8676,3.8679,3.8681,3.8683,3.8685,3.8686,3.8661,3.8661,3.8661,3.874,3.873,3.8737,3.8725,3.8723,3.8711,3.8708,3.8701,3.8692,3.8694,3.8693,3.8709,3.8712,3.8714,3.8715,3.8696,3.8696,3.8696,3.8696,3.8761,3.8763,3.875,3.8751,3.874,3.874,3.8729,3.8722,3.8719,3.871,3.8711,3.8701,3.8717,3.8717,3.8697,3.8697,3.8696,3.8696,3.8696,3.878,3.8779,3.8775,3.877,3.8768,3.8755,3.8753,3.8743,3.8734,3.8735,3.8732,3.8731,3.8729,3.8734,3.8734,3.8734,3.8735,3.8735,3.8735,3.8801,3.8796,3.8796,3.8789,3.8786,3.878,3.8767,3.8763,3.8756,3.8748,3.8748,3.8737,3.8721,3.8716,3.8735,3.8735,3.8735,3.8735,3.8735,3.8824,3.8817,3.8817,3.8814,3.8804,3.8801,3.8788,3.8781,3.8776,3.8775,3.8764,3.8753,3.8748,3.8746,3.8742,3.8767,3.8767,3.8767,3.8767,3.8839,3.8835,3.8833,3.8828,3.8822,3.8811,3.8809,3.8799,3.8786,3.8782,3.8777,3.8772,3.877,3.8765,3.8763,3.8759,3.8788,3.8788,3.8788,3.8852,3.8847,3.8849,3.8838,3.8829,3.8821,3.8819,3.8812,3.8797,3.8788,3.8778,3.8778,3.8768,3.8766,3.8757,3.8753,3.8746,0,0]}]]